Flag for Germany Weather past 2 weeks in Lüdenscheid, North Rhine-Westphalia, Germany

Now
52 °F

Clear.


Feels Like: 49 °F
Forecast: 42 / 52 °F
Wind: 7 mph from Northwest

Location: Dortmund / Wickede

Current Time: May 25, 2015 at 11:47:30 PM

Latest Report: May 25, 2015 at 10:50 PM


Visibility: 10 mi

Pressure: 29.98 "Hg

Humidity: 67%

Dew point: 41 °F

Location of LüdenscheidLocation

Historic Weather in Lüdenscheid — Graph

°F

Lüdenscheid temperature yesterday

Maximum temperature yesterday: 66 °F (at 3:50 PM)
Minimum temperature yesterday: 45 °F (at 5:20 AM)
Average temperature yesterday: 58 °F

Past Weeks' High & Low Weather Summary

 TemperatureHumidityPressure
High77 °F (May 11, 3:50 PM)94% (May 25, 11:50 AM)30.33 "Hg (May 25, 11:50 AM)
Low39 °F (May 14, 5:20 AM)29% (May 11, 2:50 PM)29.62 "Hg (May 18, 7:20 PM)
Average57 °F59%30.05 "Hg
* Reported May 10 10:20 PM — May 25 10:20 PM, Lüdenscheid, Weather by CustomWeather, © 2015

Note: Actual official high and low records may vary slightly from our data, if they occured in-between our weather recording intervals... More about our weather records

Advertising

Lüdenscheid weather history for previous 24 hours

 ConditionsComfort  
Time TempWeatherWind HumidityBarometerVisibility
10:20 PM
Mon, May 25
54 °FPassing clouds.8 mph58%29.98 "HgN/A
9:50 PM54 °FSunny.9 mph63%29.98 "Hg10 mi
9:20 PM54 °FPassing clouds.8 mph63%29.98 "HgN/A
8:50 PM55 °FSunny.8 mph59%29.95 "Hg10 mi
8:20 PM55 °FScattered clouds.7 mph59%29.95 "HgN/A
7:50 PM55 °FSunny.8 mph59%29.95 "Hg10 mi
7:20 PM57 °FSunny.8 mph55%29.95 "Hg10 mi
6:50 PM57 °FPartly sunny.7 mph59%29.95 "HgN/A
6:20 PM57 °FPartly sunny.12 mph59%29.95 "HgN/A
5:50 PM59 °FSunny.2 mph63%29.95 "Hg10 mi
5:20 PM57 °FPartly sunny.3 mph63%29.95 "HgN/A
4:50 PM59 °FPartly sunny.7 mph59%29.95 "HgN/A
4:20 PM57 °FScattered clouds.2 mph63%29.95 "HgN/A
3:50 PM57 °FScattered clouds.6 mph72%29.95 "HgN/A
3:20 PM57 °FScattered clouds.2 mph72%29.95 "HgN/A
2:50 PM54 °FPartly sunny.3 mph77%29.98 "HgN/A
2:20 PM52 °FPartly sunny.3 mph82%29.98 "HgN/A
1:50 PM52 °FPartly sunny.2 mph82%29.98 "Hg6 mi
1:20 PM52 °FFog.5 mph88%29.98 "Hg3 mi
12:50 PM50 °FFog.7 mph94%29.98 "Hg2 mi
12:20 PM50 °FFog.7 mph94%29.98 "Hg1 mi
11:50 AM52 °FDrizzle. Fog.6 mph94%29.98 "Hg1 mi
11:20 AM52 °FDrizzle. Fog.7 mph88%29.98 "Hg1 mi
10:50 AM52 °FDrizzle. Fog.3 mph88%29.98 "Hg1 mi
10:20 AM52 °FFog.6 mph88%29.98 "Hg2 mi
9:50 AM52 °FPartly sunny.3 mph88%29.98 "Hg4 mi
9:20 AM50 °FDrizzle. Broken clouds.3 mph88%29.98 "Hg5 mi
8:50 AM50 °FLight rain. Overcast.6 mph82%29.98 "Hg6 mi
8:20 AM50 °FLight rain. Overcast.5 mph88%29.98 "Hg6 mi
7:50 AM50 °FScattered showers. Partly sunny.6 mph88%29.98 "Hg6 mi
7:20 AM50 °FScattered showers. Overcast.6 mph82%29.98 "Hg6 mi
6:50 AM50 °FScattered showers. Partly sunny.6 mph82%29.98 "Hg6 mi
6:20 AM48 °FLight rain. Passing clouds.6 mph87%29.98 "HgN/A
5:50 AM48 °FLight rain. Overcast.7 mph82%29.98 "Hg6 mi
5:20 AM50 °FPassing clouds.7 mph71%29.98 "HgN/A
Weather by CustomWeather, © 2015

See weather overviewHow to use our weather pages